[[{"header":{"parameterUnit":"m.s-1","parameterCategory":1,"la1":30.2991,"la2":30.254,"lo1":-89.0895,"lo2":-89.0444,"dy":0.0017,"dx":0.0017,"nx":28,"ny":28,"refTime":"2025-03-04T09:00:00:Z","depth":0,"parameterNumber":2,"parameterNumberName":"U-component_of_WINDS"},"data":[0,0,0,0,0,0,0,0,0,0,0,0,0,0,0,0,0,0,0,0,0,0,0,0,0,0,0,0,0,0,0,0,0,0,0,0,0,0,0,0,0,0,0,0,0,0,0,0,0,0,0,0,0,0,0,0,0,0,-6.1778,-6.1778,0,-6.1836,-6.1837,-6.1838,-6.1762,-6.176,-6.1757,-6.1754,-6.181,-6.1814,-6.1818,0,0,0,0,0,0,0,0,0,0,0,0,0,-6.1597,-6.16,-6.1778,-6.1778,-6.1779,-6.1836,-6.1837,-6.1838,-6.1763,-6.176,-6.1756,-6.1753,-6.1809,-6.1814,-6.1819,0,0,0,0,0,0,0,0,0,0,0,0,0,-6.1667,-6.1602,-6.1777,-6.1749,-6.1747,-6.1836,-6.1837,-6.1838,-6.1764,-6.176,-6.1755,-6.1752,-6.1807,-6.1813,-6.1819,-6.1938,0,0,-6.1838,-6.184,0,0,0,0,0,0,0,0,-6.1663,-6.1674,-6.1752,-6.1751,-6.1749,-6.1788,-6.1794,-6.1871,-6.1765,-6.1757,-6.1754,-6.175,-6.1806,-6.1812,-6.1832,-6.1941,-6.1943,-6.1838,-6.1842,-6.1844,-6.1846,0,0,0,0,0,0,0,-6.1659,-6.1671,-6.1801,-6.1753,-6.1751,-6.1731,-6.1737,-6.1808,-6.1803,-6.1757,-6.1752,-6.176,-6.1804,-6.1826,-6.1832,-6.1944,-6.1838,-6.1843,-6.1847,-6.1849,-6.2152,-6.2156,0,0,0,0,0,0,-6.1658,-6.1667,-6.1799,-6.1802,-6.1695,-6.1738,-6.1744,-6.1779,-6.1803,-6.1802,-6.1764,-6.1757,-6.1818,-6.1825,-6.1834,-6.1973,-6.1844,-6.185,-6.1853,-6.2147,-6.2153,-6.2157,0,0,0,0,0,0,-6.1654,-6.167,-6.1796,-6.1734,-6.1748,-6.1746,-6.1786,-6.1783,-6.1804,-6.1807,-6.1806,-6.1787,-6.1815,-6.1825,-6.1913,-6.1974,-6.1853,-6.1858,-6.2142,-6.2149,-6.2155,-6.2253,0,0,0,0,0,0,-6.1649,-6.1669,-6.1715,-6.1735,-6.1752,-6.1876,-6.179,-6.1787,-6.1816,-6.1807,-6.1829,-6.1829,-6.1812,-6.1904,-6.1919,-6.198,-6.1863,-6.2137,-6.2145,-6.2153,-6.2244,-6.2262,-6.2277,0,0,0,0,0,-6.1643,-6.174,-6.1718,-6.1734,-6.181,-6.1879,-6.1888,-6.1869,-6.1821,-6.1866,-6.1868,-6.1828,-6.1966,-6.1914,-6.1929,-6.1993,-6.2133,-6.2143,-6.2152,-6.2236,-6.2258,-6.2277,0,0,0,0,0,0,-6.1725,-6.1742,-6.1718,-6.1824,-6.1851,-6.1866,-6.1923,-6.1893,-6.1933,-6.1923,-6.1896,-6.1901,-6.1994,-6.2003,-6.1945,-6.2109,-6.2041,-6.2054,-6.2099,-6.212,-6.2136,-6.2131,-6.1868,0,0,0,0,0,-6.1757,-6.1813,-6.1824,-6.1917,-6.1932,-6.1926,-6.1955,-6.1938,-6.1964,-6.1974,-6.1983,-6.2008,-6.2057,-6.2089,-6.2135,-6.2246,-6.2248,-6.2298,-6.2314,-6.2328,-6.2339,-6.2396,-6.2417,-6.219,-6.219,-6.219,0,0,-6.182,-6.1836,-6.1873,-6.1934,-6.1952,-6.201,-6.1935,-6.1999,-6.2041,-6.1984,-6.2066,-6.2074,-6.21,-6.2199,-6.2244,-6.2209,-6.2403,-6.2341,-6.2351,-6.2355,-6.2408,-6.243,-6.2449,-6.2197,-6.2196,-6.2194,0,0,-6.1964,-6.1984,-6.2062,-6.2083,-6.2113,-6.2108,-6.2128,-6.2148,-6.2151,-6.2234,-6.2191,-6.224,-6.2326,-6.2346,-6.2367,-6.2521,-6.2485,-6.2537,-6.2622,-6.2678,-6.2696,-6.2712,-6.2764,-6.2783,-6.2549,-6.2549,-6.2549,0,-6.2039,-6.2125,-6.2106,-6.2173,-6.22,-6.2153,-6.2231,-6.2252,-6.2295,-6.2314,-6.2276,-6.2381,-6.2396,-6.2498,-6.2536,-6.2556,-6.2575,-6.2532,-6.2696,-6.2711,-6.2725,-6.2775,-6.2795,-6.2555,-6.2554,-6.2553,-6.2553,0,-6.2214,-6.2275,-6.2335,-6.2378,-6.2412,-6.2485,-6.2475,-6.2512,-6.2493,-6.2492,-6.2576,-6.2593,-6.2639,-6.2663,-6.2645,-6.2763,-6.2741,-6.27,-6.263,-6.2753,-6.2799,-6.2818,-6.2563,-6.2561,-6.2559,-6.2558,0,0,-6.2409,-6.2443,-6.2465,-6.2483,-6.2514,-6.2559,-6.2629,-6.2677,-6.2708,-6.274,-6.2796,-6.287,-6.2832,-6.2857,-6.284,-6.289,-6.3008,-6.2843,-6.2843,-6.287,-6.3136,-6.3164,-6.3187,-6.2986,-6.2989,-6.2992,-6.3133,0,-6.2552,-6.2674,-6.2659,-6.2775,-6.2829,-6.2786,-6.2847,-6.2871,-6.2873,-6.2918,-6.292,-6.2971,-6.292,-6.2934,-6.2982,-6.2984,-6.306,-6.2974,-6.3035,-6.3037,-6.3026,-6.3211,-6.3241,-6.3373,-6.3151,-6.3154,-6.3156,0,-6.2733,-6.2773,-6.2895,-6.2916,-6.2938,-6.2993,-6.3035,-6.308,-6.3106,-6.3104,-6.3132,-6.3107,-6.3176,-6.3108,-6.3201,-6.3142,-6.3167,-6.3172,-6.3176,-6.3178,-6.3102,-6.3215,-6.3415,-6.3433,-6.3185,-6.3183,-6.3181,0,-6.2859,-6.2943,-6.3027,-6.3044,-6.3072,-6.3112,-6.3125,-6.3148,-6.3177,-6.3214,-6.3232,-6.3276,-6.3299,-6.3333,-6.332,-6.3273,-6.3415,-6.3346,-6.3412,-6.3412,-6.3441,-6.3438,-6.3644,-6.3463,-6.3463,-6.3462,-6.3462,0,-6.3018,-6.3093,-6.3083,-6.3134,-6.3217,-6.32,-6.3282,-6.329,-6.331,-6.3361,-6.3327,-6.3375,-6.3356,-6.3402,-6.3393,-6.347,-6.3481,-6.3479,-6.3475,-6.348,-6.348,-6.3493,-6.3482,-6.3468,-6.3466,-6.3465,-6.3465,0,-6.3171,-6.3168,-6.3255,-6.3276,-6.3282,-6.3342,-6.3358,-6.3405,-6.3406,-6.347,-6.3484,-6.3483,-6.3536,-6.3527,-6.3585,-6.3579,-6.3674,-6.366,-6.3665,-6.366,-6.3726,-6.3718,-6.3944,-6.3971,-6.3776,-6.3778,-6.3779,0,-6.327,-6.3328,-6.3354,-6.3386,-6.3403,-6.3455,-6.3485,-6.347,-6.3503,-6.3538,-6.358,-6.3631,-6.3669,-6.3755,-6.3759,-6.3803,-6.3788,-6.3864,-6.3794,-6.3797,-6.3785,-6.378,-6.3785,-6.3877,-6.3879,-6.3881,-6.3882,0,-6.3446,-6.3442,-6.3487,-6.3533,-6.357,-6.3605,-6.3636,-6.3664,-6.3652,-6.369,-6.3744,-6.3775,-6.3835,-6.3884,-6.3926,-6.3937,-6.3907,-6.3905,-6.3922,-6.3926,-6.3925,-6.3923,-6.3699,-6.3899,-6.3897,-6.3896,-6.3895,-6.3894,-6.3573,-6.3621,-6.3648,-6.3699,-6.3722,-6.3752,-6.3796,-6.3803,-6.3848,-6.3897,-6.3886,-6.3946,-6.3971,-6.4024,-6.4041,-6.4087,-6.4058,-6.4084,-6.4089,-6.4095,-6.4101,-6.3921,-6.4095,-6.4094,-6.4094,-6.4093,-6.4093,0,-6.3744,-6.3759,-6.3807,-6.3852,-6.3893,-6.3864,-6.3897,-6.3932,-6.3987,-6.4013,-6.4053,-6.4114,-6.4163,-6.4171,-6.4216,-6.4251,-6.4239,-6.4263,-6.4259,-6.4261,-6.4126,-6.4105,-6.4273,-6.4273,-6.4273,-6.4273,-6.4273,-6.4273,-6.3837,-6.3917,-6.3916,-6.4006,-6.4021,-6.4081,-6.4102,-6.4129,-6.415,-6.4221,-6.4261,-6.4267,-6.4286,-6.4332,-6.4374,-6.4375,-6.4392,-6.4422,-6.4417,-6.4289,-6.4271,-6.4254,-6.4234,-6.4426,-6.4427,-6.4548,-6.455,-6.455]},{"header":{"parameterUnit":"m.s-1","parameterCategory":1,"la1":30.2991,"la2":30.254,"lo1":-89.0895,"lo2":-89.0444,"dy":0.0017,"dx":0.0017,"nx":28,"ny":28,"refTime":"2025-03-04T09:00:00:Z","depth":0,"parameterNumber":3,"parameterNumberName":"V-component_of_WINDS"},"data":[0,0,0,0,0,0,0,0,0,0,0,0,0,0,0,0,0,0,0,0,0,0,0,0,0,0,0,0,0,0,0,0,0,0,0,0,0,0,0,0,0,0,0,0,0,0,0,0,0,0,0,0,0,0,0,0,0,0,2.9357,2.9359,0,2.9564,2.9566,2.9568,2.9624,2.9623,2.9622,2.962,2.9828,2.9835,2.9841,0,0,0,0,0,0,0,0,0,0,0,0,0,2.9009,2.9015,2.9357,2.9359,2.9362,2.9563,2.9566,2.9569,2.9624,2.9623,2.9621,2.962,2.9826,2.9834,2.9842,0,0,0,0,0,0,0,0,0,0,0,0,0,2.9182,2.9017,2.9356,2.9414,2.9421,2.9563,2.9566,2.957,2.9624,2.9623,2.9621,2.9619,2.9823,2.9833,2.9843,2.9941,0,0,2.9874,2.9878,0,0,0,0,0,0,0,0,2.9172,2.9195,2.9403,2.941,2.9418,2.9566,2.952,2.9694,2.9625,2.9547,2.962,2.9618,2.9742,2.9759,2.9802,2.9951,2.996,2.9874,2.9881,2.9885,2.9888,0,0,0,0,0,0,0,2.916,2.9186,2.9438,2.9406,2.9415,2.9429,2.9452,2.9553,2.9652,2.9554,2.9558,2.9582,2.9746,2.9792,2.9807,2.9963,2.9874,2.9883,2.9889,2.9893,3.0207,3.0209,0,0,0,0,0,0,2.9138,2.9176,2.9432,2.9445,2.9288,2.9437,2.9462,2.9521,2.9651,2.967,2.9584,2.9584,2.9776,2.9795,2.9814,2.9941,2.9885,2.9894,2.99,3.0205,3.0207,3.021,0,0,0,0,0,0,2.9131,2.9161,2.9424,2.9312,2.9346,2.9445,2.951,2.9526,2.9571,2.9674,2.9692,2.9612,2.9775,2.98,2.991,2.9948,2.9899,2.9908,3.0202,3.0206,3.0209,3.0191,0,0,0,0,0,0,2.912,2.9157,2.9196,2.9312,2.9352,2.9516,2.9512,2.9531,2.9589,2.9591,2.9705,2.9722,2.9775,2.9895,2.992,2.9961,2.9916,3.0199,3.0203,3.0208,3.0189,3.0194,3.0198,0,0,0,0,0,2.9108,2.9181,2.9197,2.9228,2.9402,2.9518,2.9541,2.9602,2.9591,2.9631,2.9698,2.9719,2.994,2.9906,2.9935,2.9979,3.0197,3.0202,3.0207,3.0187,3.0193,3.0198,0,0,0,0,0,0,2.9064,2.9197,2.9217,2.933,2.9413,2.9527,2.9579,2.9606,2.9692,2.969,2.9761,2.9786,2.9892,2.9947,2.9906,3.0083,3.0069,3.008,3.0043,3.005,3.0054,3.0039,2.9924,0,0,0,0,0,2.9068,2.9152,2.9263,2.9352,2.9393,2.9479,2.9532,2.9572,2.966,2.9695,2.9769,2.9853,2.9942,2.9999,3.0086,3.0197,3.0224,3.0242,3.0247,3.025,3.0259,3.0325,3.0335,3.0227,3.0227,3.0227,0,0,2.9076,2.9159,2.9207,2.9346,2.9415,2.9501,2.9508,2.9597,2.9662,2.9708,2.9818,2.9875,2.9974,3.0086,3.0139,3.0134,3.0295,3.0257,3.0258,3.0266,3.0331,3.0341,3.035,3.0231,3.023,3.023,0,0,2.9135,2.9206,2.9289,2.9359,2.9465,2.9522,2.9542,2.9654,2.9695,2.9807,2.9844,2.9921,3.0072,3.0142,3.0197,3.0287,3.031,3.0313,3.0337,3.04,3.0409,3.0417,3.0451,3.0462,3.0322,3.0322,3.0322,0,2.9131,2.9263,2.9328,2.9418,2.9479,2.9527,2.9613,2.9677,2.9804,2.9845,2.9839,3.0032,3.0101,3.0232,3.0255,3.0297,3.0323,3.03,3.0402,3.0411,3.0419,3.0453,3.0465,3.0322,3.0322,3.0322,3.0322,0,2.9255,2.9346,2.9401,2.9526,2.9593,2.9679,2.9758,2.9818,2.9853,2.9911,3.0026,3.0111,3.0218,3.0252,3.0285,3.0388,3.0383,3.0388,3.0376,3.0428,3.0461,3.0474,3.0321,3.0321,3.0321,3.0321,0,0,2.929,2.9453,2.9472,2.9531,2.9653,2.9724,2.9814,2.9921,2.9972,3.0059,3.0137,3.0265,3.0273,3.0335,3.0378,3.0433,3.0503,3.0433,3.0437,3.0444,3.0624,3.0619,3.0633,3.0519,3.0522,3.0524,3.0616,0,2.9365,2.953,2.9593,2.9726,2.9813,2.9862,2.994,3.0024,3.0081,3.0162,3.0225,3.0316,3.0318,3.0356,3.0414,3.0482,3.054,3.0476,3.0593,3.0596,3.0567,3.065,3.0645,3.0728,3.0629,3.0631,3.0633,0,2.9475,2.9566,2.9709,2.9824,2.9862,2.9932,3.0037,3.0114,3.021,3.0248,3.032,3.036,3.0457,3.0439,3.0574,3.0529,3.0581,3.0622,3.0627,3.0641,3.0618,3.0667,3.0755,3.0768,3.0653,3.0651,3.065,0,2.9489,2.9647,2.9755,2.9803,2.9939,2.9987,3.0046,3.014,3.0202,3.0293,3.0334,3.0434,3.0489,3.0567,3.0633,3.0613,3.0763,3.0749,3.0798,3.0797,3.0827,3.0825,3.0927,3.0859,3.0858,3.0858,3.0858,0,2.9567,2.9653,2.9763,2.9829,2.9928,3.0,3.0095,3.0157,3.0242,3.0321,3.0368,3.0441,3.0524,3.0608,3.0661,3.0766,3.079,3.0824,3.0837,3.0821,3.0817,3.0856,3.0852,3.0862,3.0861,3.086,3.086,0,2.9598,2.9676,2.9796,2.9916,2.9949,3.0016,3.0119,3.0185,3.0246,3.0345,3.0373,3.0468,3.057,3.0644,3.0774,3.081,3.0924,3.0936,3.0892,3.0899,3.0944,3.0939,3.1075,3.1098,3.1013,3.1014,3.1014,0,2.9644,2.9712,2.984,2.9898,2.9957,3.0048,3.0112,3.0187,3.0251,3.0369,3.0421,3.0527,3.0615,3.0776,3.0856,3.0957,3.0973,3.1014,3.0988,3.097,3.0976,3.0971,3.098,3.1017,3.1018,3.1018,3.1019,0,2.9716,2.9752,2.9843,2.9949,3.0025,3.0111,3.0198,3.0242,3.0332,3.0403,3.0509,3.0578,3.0713,3.0818,3.0928,3.0988,3.1019,3.1026,3.1043,3.1027,3.1,3.1018,3.0903,3.1023,3.1022,3.1022,3.1022,3.1022,2.9758,2.9822,2.9923,3.0024,3.0098,3.0179,3.0249,3.032,3.041,3.0528,3.0566,3.0676,3.0774,3.0925,3.0986,3.1074,3.1073,3.1096,3.1103,3.1108,3.1108,3.0986,3.1094,3.1094,3.1094,3.1094,3.1094,0,2.9834,2.9903,2.9996,3.0118,3.0197,3.0222,3.032,3.0385,3.0482,3.0571,3.0659,3.0782,3.0885,3.0975,3.1082,3.1135,3.1152,3.116,3.1158,3.1172,3.1102,3.1078,3.1145,3.1145,3.1145,3.1145,3.1145,3.1145,2.9884,2.9995,3.0043,3.0192,3.026,3.037,3.0425,3.05,3.0572,3.0709,3.0795,3.0854,3.0944,3.1059,3.1155,3.1179,3.1216,3.1222,3.1249,3.1182,3.1176,3.117,3.1148,3.1229,3.1229,3.1312,3.1312,3.1313]}]]